When you browse on this site, cookies collect data to enhance your experience and personalize the content and advertising you see.
Visit our Privacy Policy to learn more. By continuing to use the site, you agree to this use of cookies and data.
  • In Latvia
  • List of Countries
  • For 7 days
  • Water Temperature
  • Weather Map
  • Weather Widgets
  • user-avatar
    Login

    Hourly Weather Jadwichna

    Today, 23 February, Sunday

    Time Temperature Precipitation Wind Pressure Humidity
    00:00 +6°C° 0.1 mm 9 mps 749 mmHg 67%
    01:00 +6°C° 0 mm 7 mps 749 mmHg 75%
    02:00 +5°C° 0.7 mm 7 mps 748 mmHg 79%
    03:00 +5°C° 0.7 mm 6 mps 748 mmHg 84%
    04:00 +5°C° 0.7 mm 5 mps 748 mmHg 88%
    05:00 +5°C° 0.6 mm 5 mps 748 mmHg 85%
    06:00 +5°C° 0.6 mm 5 mps 748 mmHg 82%
    07:00 +5°C° 0 mm 5 mps 749 mmHg 86%
    08:00 +4°C° 0.1 mm 6 mps 748 mmHg 81%
    09:00 +4°C° 0.1 mm 7 mps 748 mmHg 76%
    10:00 +5°C° 0.1 mm 9 mps 748 mmHg 70%
    11:00 +4°C° 0.1 mm 8 mps 747 mmHg 72%
    12:00 +4°C° 0.1 mm 7 mps 747 mmHg 74%
    13:00 +4°C° 0 mm 7 mps 746 mmHg 72%
    14:00 +3°C° 1 mm 6 mps 744 mmHg 79%
    15:00 +3°C° 1 mm 5 mps 742 mmHg 85%
    16:00 +3°C° 1 mm 4 mps 741 mmHg 92%
    17:00 +4°C° 2.1 mm 4 mps 740 mmHg 93%
    18:00 +4°C° 2.1 mm 3 mps 738 mmHg 95%
    19:00 +4°C° 2.1 mm 3 mps 737 mmHg 96%
    20:00 +5°C° 2.1 mm 5 mps 737 mmHg 93%
    21:00 +4°C° 2.1 mm 7 mps 737 mmHg 90%
    22:00 +5°C° 2.1 mm 8 mps 736 mmHg 87%
    23:00 +3°C° 0.6 mm 9 mps 738 mmHg 88%

    Tomorrow, 24 February, Monday

    Time Temperature Precipitation Wind Pressure Humidity
    00:00 +2°C° 0.6 mm 10 mps 740 mmHg 90%
    01:00 +1°C° 0.6 mm 11 mps 742 mmHg 91%
    02:00 +1°C° 0.3 mm 11 mps 743 mmHg 88%
    03:00 +1°C° 0.3 mm 11 mps 744 mmHg 84%
    04:00 -1°C° 0.3 mm 11 mps 745 mmHg 81%
    05:00 0°C° 0 mm 10 mps 747 mmHg 82%
    06:00 0°C° 0 mm 10 mps 748 mmHg 82%
    07:00 0°C° 0 mm 9 mps 749 mmHg 83%
    08:00 +1°C° 0 mm 9 mps 749 mmHg 80%
    09:00 +1°C° 0 mm 9 mps 750 mmHg 76%
    10:00 +2°C° 0 mm 9 mps 750 mmHg 73%
    11:00 +2°C° 0 mm 8 mps 750 mmHg 70%
    12:00 +2°C° 0 mm 8 mps 750 mmHg 68%
    13:00 +4°C° 0 mm 7 mps 751 mmHg 66%
    14:00 +4°C° 0 mm 6 mps 750 mmHg 66%
    15:00 +4°C° 0 mm 6 mps 750 mmHg 67%
    16:00 +5°C° 0 mm 5 mps 750 mmHg 67%
    17:00 +4°C° 0 mm 4 mps 750 mmHg 71%
    18:00 +3°C° 0 mm 4 mps 749 mmHg 74%
    19:00 +3°C° 0 mm 3 mps 749 mmHg 77%
    20:00 +3°C° 0 mm 4 mps 748 mmHg 78%
    21:00 +2°C° 0 mm 5 mps 747 mmHg 79%
    22:00 +2°C° 0 mm 6 mps 745 mmHg 81%
    23:00 +2°C° 0.5 mm 6 mps 744 mmHg 81%

    Day after tomorrow, 25 February, Tuesday

    Time Temperature Precipitation Wind Pressure Humidity
    00:00 +2°C° 0.5 mm 7 mps 743 mmHg 82%
    01:00 +2°C° 0.5 mm 7 mps 741 mmHg 83%
    02:00 +2°C° 0.5 mm 8 mps 740 mmHg 84%
    03:00 +5°C° 0.5 mm 8 mps 739 mmHg 86%
    04:00 +6°C° 0.5 mm 9 mps 738 mmHg 88%
    05:00 +6°C° 0.1 mm 8 mps 738 mmHg 87%
    06:00 +6°C° 0.1 mm 7 mps 738 mmHg 87%
    07:00 +6°C° 0.1 mm 7 mps 738 mmHg 86%
    08:00 +8°C° 0.1 mm 7 mps 738 mmHg 83%
    09:00 +7°C° 0.1 mm 8 mps 738 mmHg 80%
    10:00 +9°C° 0.1 mm 8 mps 737 mmHg 77%
    11:00 +9°C° 0.1 mm 8 mps 737 mmHg 73%
    12:00 +10°C° 0.1 mm 8 mps 737 mmHg 68%
    13:00 +10°C° 0.1 mm 8 mps 737 mmHg 64%
    14:00 +10°C° 0.1 mm 8 mps 736 mmHg 65%
    15:00 +9°C° 0.1 mm 7 mps 736 mmHg 66%
    16:00 +9°C° 0.1 mm 6 mps 735 mmHg 67%
    17:00 +8°C° 0.4 mm 6 mps 736 mmHg 69%
    18:00 +7°C° 0.4 mm 6 mps 736 mmHg 71%
    19:00 +5°C° 0.4 mm 6 mps 736 mmHg 73%
    20:00 +4°C° 0 mm 6 mps 736 mmHg 72%
    21:00 +3°C° 0 mm 5 mps 736 mmHg 71%
    22:00 +2°C° 0 mm 5 mps 736 mmHg 70%
    23:00 +2°C° 0 mm 5 mps 736 mmHg 72%

    26 February, Wednesday

    Time Temperature Precipitation Wind Pressure Humidity
    00:00 +2°C° 0 mm 5 mps 736 mmHg 73%
    01:00 +1°C° 0 mm 5 mps 736 mmHg 74%
    02:00 +1°C° 0 mm 5 mps 736 mmHg 75%
    03:00 +1°C° 0 mm 5 mps 735 mmHg 76%
    04:00 +1°C° 0 mm 5 mps 735 mmHg 76%
    05:00 0°C° 0 mm 5 mps 735 mmHg 78%
    06:00 0°C° 0 mm 5 mps 735 mmHg 79%
    07:00 0°C° 0 mm 4 mps 735 mmHg 81%
    08:00 +1°C° 0 mm 4 mps 735 mmHg 76%
    09:00 +3°C° 0 mm 4 mps 735 mmHg 72%
    10:00 +3°C° 0 mm 5 mps 734 mmHg 68%
    11:00 +5°C° 0 mm 4 mps 734 mmHg 65%
    12:00 +6°C° 0 mm 4 mps 734 mmHg 62%
    13:00 +6°C° 0 mm 4 mps 734 mmHg 59%
    14:00 +6°C° 0.3 mm 5 mps 734 mmHg 63%
    15:00 +5°C° 0.3 mm 5 mps 734 mmHg 67%
    16:00 +5°C° 0.3 mm 5 mps 734 mmHg 71%
    17:00 +3°C° 0.3 mm 5 mps 735 mmHg 73%
    18:00 +2°C° 0.3 mm 5 mps 735 mmHg 75%
    19:00 +1°C° 0.3 mm 5 mps 736 mmHg 77%
    20:00 +1°C° 0 mm 5 mps 736 mmHg 77%
    21:00 +1°C° 0 mm 4 mps 736 mmHg 77%
    22:00 +2°C° 0 mm 3 mps 737 mmHg 77%
    23:00 +1°C° 0 mm 3 mps 737 mmHg 79%

    27 February, Thursday

    Time Temperature Precipitation Wind Pressure Humidity
    00:00 +1°C° 0 mm 3 mps 737 mmHg 82%
    01:00 0°C° 0 mm 3 mps 737 mmHg 84%
    02:00 0°C° 0.1 mm 3 mps 738 mmHg 88%
    03:00 -1°C° 0.1 mm 4 mps 738 mmHg 92%
    04:00 -1°C° 0.1 mm 5 mps 739 mmHg 95%
    05:00 -1°C° 0.4 mm 5 mps 739 mmHg 93%
    06:00 -1°C° 0.4 mm 5 mps 740 mmHg 91%
    07:00 -1°C° 0.4 mm 5 mps 740 mmHg 89%
    08:00 -1°C° 0.1 mm 5 mps 741 mmHg 85%
    09:00 0°C° 0.1 mm 5 mps 742 mmHg 81%
    10:00 0°C° 0.1 mm 5 mps 742 mmHg 77%
    11:00 0°C° 0.2 mm 5 mps 742 mmHg 76%
    12:00 -1°C° 0.2 mm 6 mps 742 mmHg 75%
    13:00 0°C° 0.2 mm 7 mps 743 mmHg 74%
    14:00 +1°C° 0.1 mm 6 mps 743 mmHg 72%
    15:00 -1°C° 0.1 mm 6 mps 743 mmHg 70%
    16:00 -1°C° 0.1 mm 6 mps 743 mmHg 68%
    17:00 0°C° 0 mm 5 mps 743 mmHg 72%
    18:00 0°C° 0 mm 3 mps 743 mmHg 76%
    19:00 -1°C° 0 mm 2 mps 743 mmHg 80%
    20:00 -1°C° 0 mm 2 mps 743 mmHg 84%
    21:00 -1°C° 0 mm 2 mps 742 mmHg 87%
    22:00 -1°C° 0 mm 2 mps 742 mmHg 90%
    23:00 -1°C° 0 mm 2 mps 742 mmHg 89%

    28 February, Friday

    Time Temperature Precipitation Wind Pressure Humidity
    00:00 -1°C° 0 mm 2 mps 741 mmHg 89%
    01:00 -1°C° 0 mm 2 mps 741 mmHg 88%
    02:00 -1°C° 0 mm 2 mps 741 mmHg 87%
    03:00 -1°C° 0 mm 2 mps 740 mmHg 86%
    04:00 -1°C° 0 mm 2 mps 739 mmHg 85%
    05:00 -1°C° 0 mm 2 mps 739 mmHg 85%
    06:00 0°C° 0 mm 3 mps 738 mmHg 84%
    07:00 0°C° 0 mm 3 mps 738 mmHg 83%
    08:00 0°C° 0.4 mm 3 mps 738 mmHg 87%
    09:00 0°C° 0.4 mm 3 mps 738 mmHg 91%
    10:00 +1°C° 0.4 mm 2 mps 738 mmHg 95%
    11:00 +1°C° 0.3 mm 2 mps 738 mmHg 96%
    12:00 +2°C° 0.3 mm 1 mps 739 mmHg 96%
    13:00 +2°C° 0.3 mm 1 mps 739 mmHg 96%
    14:00 +2°C° 0.1 mm 1 mps 740 mmHg 95%
    15:00 +1°C° 0.1 mm 2 mps 740 mmHg 95%
    16:00 +1°C° 0.1 mm 2 mps 741 mmHg 94%
    17:00 +1°C° 0 mm 2 mps 741 mmHg 95%
    18:00 +1°C° 0 mm 2 mps 742 mmHg 95%
    19:00 +1°C° 0 mm 2 mps 742 mmHg 96%
    20:00 -1°C° 0 mm 2 mps 742 mmHg 94%
    21:00 -1°C° 0 mm 2 mps 742 mmHg 93%
    22:00 -1°C° 0 mm 2 mps 742 mmHg 91%
    23:00 -1°C° 0 mm 2 mps 742 mmHg 90%
    Show more